KAL671 RKSI-VHHH

Flight info

Callsign KAL671
Flight time N/A
Altitude 38000
Route BOPTA2A BOPTA Z51 BEDES Y711 MUGUS Y742 SALMI Q11 DRAKE A1 APU/N0485F400 A1 ELATO V522 ABBEY ABBEY4A
Aircraft B77W/H-SDE1E2E3FGHIJ1J3J5J7M1M3P1RWXYZ/LB2D1

Departure

Time 2026-05-01 08:57
Airport Incheon International Airport (RKSI)

Arrival

Time N/A
Airport Hong Kong International Airport (VHHH)
Time Latitude Longitude Altitude Speed Heading
2026-05-01 08:14 37.46814 126.44050 36 ft 0 kts 219°
2026-05-01 08:42 37.46823 126.44060 35 ft 2 kts 219°
2026-05-01 08:43 37.46835 126.44072 36 ft 2 kts 219°
2026-05-01 08:43 37.46846 126.44083 36 ft 2 kts 219°
2026-05-01 08:43 37.46858 126.44096 36 ft 1 kts 219°
2026-05-01 08:43 37.46865 126.44103 36 ft 2 kts 214°
2026-05-01 08:44 37.46878 126.44111 35 ft 2 kts 188°
2026-05-01 08:44 37.46893 126.44111 36 ft 2 kts 167°
2026-05-01 08:44 37.46907 126.44104 35 ft 2 kts 146°
2026-05-01 08:44 37.46915 126.44097 36 ft 0 kts 133°
2026-05-01 08:45 37.46917 126.44093 35 ft 0 kts 132°
2026-05-01 08:46 37.46915 126.44096 35 ft 2 kts 132°
2026-05-01 08:46 37.46881 126.44144 35 ft 11 kts 132°
2026-05-01 08:47 37.46805 126.44236 35 ft 18 kts 139°
2026-05-01 08:47 37.46688 126.44349 36 ft 23 kts 144°
2026-05-01 08:47 37.46630 126.44401 35 ft 4 kts 144°
2026-05-01 08:47 37.46574 126.44448 36 ft 10 kts 155°
2026-05-01 08:48 37.46511 126.44421 36 ft 10 kts 232°
2026-05-01 08:48 37.46460 126.44332 35 ft 16 kts 234°
2026-05-01 08:48 37.46390 126.44209 35 ft 16 kts 234°
2026-05-01 08:48 37.46323 126.44091 35 ft 16 kts 234°
2026-05-01 08:49 37.46259 126.43977 35 ft 15 kts 234°
2026-05-01 08:49 37.46196 126.43865 35 ft 15 kts 234°
2026-05-01 08:49 37.46133 126.43755 35 ft 15 kts 234°
2026-05-01 08:49 37.46072 126.43646 35 ft 15 kts 234°
2026-05-01 08:50 37.46011 126.43539 35 ft 14 kts 234°
2026-05-01 08:50 37.45952 126.43434 35 ft 14 kts 234°
2026-05-01 08:50 37.45900 126.43342 35 ft 10 kts 234°
2026-05-01 08:50 37.45857 126.43274 35 ft 7 kts 214°
2026-05-01 08:51 37.45811 126.43272 35 ft 7 kts 152°
2026-05-01 08:51 37.45764 126.43315 35 ft 9 kts 144°
2026-05-01 08:51 37.45697 126.43375 35 ft 13 kts 144°
2026-05-01 08:51 37.45608 126.43455 35 ft 17 kts 144°
2026-05-01 08:52 37.45503 126.43547 35 ft 19 kts 144°
2026-05-01 08:52 37.45393 126.43645 35 ft 20 kts 144°
2026-05-01 08:52 37.45273 126.43752 35 ft 21 kts 144°
2026-05-01 08:52 37.45145 126.43866 35 ft 23 kts 144°
2026-05-01 08:53 37.45009 126.43990 35 ft 24 kts 142°
2026-05-01 08:53 37.44867 126.44122 35 ft 26 kts 144°
2026-05-01 08:53 37.44716 126.44257 35 ft 26 kts 144°
2026-05-01 08:53 37.44602 126.44353 35 ft 7 kts 145°
2026-05-01 08:54 37.44549 126.44400 35 ft 6 kts 147°
2026-05-01 08:54 37.44495 126.44398 35 ft 9 kts 216°
2026-05-01 08:54 37.44448 126.44327 35 ft 11 kts 232°
2026-05-01 08:54 37.44430 126.44296 35 ft 0 kts 234°
2026-05-01 08:55 37.44409 126.44259 35 ft 9 kts 234°
2026-05-01 08:55 37.44371 126.44191 35 ft 4 kts 237°
2026-05-01 08:55 37.44370 126.44154 35 ft 4 kts 294°
2026-05-01 08:56 37.44398 126.44119 35 ft 10 kts 323°
2026-05-01 08:56 37.44646 126.43895 35 ft 79 kts 324°
2026-05-01 08:56 37.45272 126.43339 36 ft 138 kts 324°
2026-05-01 08:56 37.46158 126.42569 286 ft 163 kts 318°
2026-05-01 08:57 37.47069 126.41734 1046 ft 163 kts 319°
2026-05-01 08:57 37.47906 126.40929 1851 ft 154 kts 315°
2026-05-01 08:57 37.48580 126.39812 2269 ft 167 kts 304°
2026-05-01 08:57 37.49264 126.38565 2650 ft 183 kts 308°
2026-05-01 08:58 37.49984 126.37148 3044 ft 203 kts 294°
2026-05-01 08:58 37.50321 126.35339 3502 ft 223 kts 278°
2026-05-01 08:58 37.50441 126.33327 3970 ft 240 kts 277°
2026-05-01 08:58 37.50514 126.31178 4495 ft 254 kts 275°
2026-05-01 08:59 37.50568 126.28962 5286 ft 257 kts 276°
2026-05-01 08:59 37.50621 126.26693 6006 ft 262 kts 276°
2026-05-01 08:59 37.50677 126.24383 6749 ft 265 kts 276°
2026-05-01 08:59 37.50721 126.22083 7516 ft 268 kts 273°
2026-05-01 09:00 37.50306 126.19750 8144 ft 285 kts 250°
2026-05-01 09:00 37.49084 126.17735 8756 ft 302 kts 223°
2026-05-01 09:00 37.47231 126.16459 9458 ft 310 kts 205°
2026-05-01 09:00 37.45163 126.15515 10086 ft 317 kts 201°
2026-05-01 09:01 37.42967 126.14873 10439 ft 337 kts 189°
2026-05-01 09:01 37.40540 126.14839 10781 ft 355 kts 174°
2026-05-01 09:01 37.38076 126.15537 11123 ft 373 kts 159°
2026-05-01 09:01 37.35708 126.17025 11422 ft 389 kts 144°
2026-05-01 09:02 37.33642 126.19288 11734 ft 402 kts 129°
2026-05-01 09:02 37.31941 126.22149 12064 ft 413 kts 117°
2026-05-01 09:02 37.30532 126.25301 12721 ft 420 kts 116°
2026-05-01 09:02 37.28988 126.28427 13665 ft 422 kts 120°
2026-05-01 09:03 37.27322 126.31468 14483 ft 429 kts 122°
2026-05-01 09:03 37.25542 126.34466 15265 ft 439 kts 124°
2026-05-01 09:03 37.23637 126.37501 16033 ft 447 kts 126°
2026-05-01 09:03 37.21650 126.40505 16950 ft 450 kts 130°
2026-05-01 09:04 37.19331 126.43233 17666 ft 460 kts 140°
2026-05-01 09:04 37.16657 126.45472 18387 ft 468 kts 151°
2026-05-01 09:04 37.13697 126.47166 19082 ft 475 kts 159°
2026-05-01 09:04 37.10590 126.48611 19841 ft 479 kts 161°
2026-05-01 09:05 37.07458 126.50051 20564 ft 484 kts 161°
2026-05-01 09:05 37.04248 126.51510 21310 ft 488 kts 164°
2026-05-01 09:05 37.00991 126.52659 21941 ft 493 kts 168°
2026-05-01 09:05 36.97647 126.53745 22609 ft 497 kts 168°
2026-05-01 09:06 36.94282 126.54837 23241 ft 502 kts 168°
2026-05-01 09:06 36.90895 126.55939 23817 ft 508 kts 169°
2026-05-01 09:06 36.87463 126.57059 24353 ft 514 kts 168°
2026-05-01 09:06 36.83998 126.58192 24849 ft 521 kts 169°
2026-05-01 09:07 36.80464 126.59348 25283 ft 529 kts 169°
2026-05-01 09:07 36.76884 126.60522 25782 ft 535 kts 169°
2026-05-01 09:07 36.73277 126.61704 26345 ft 540 kts 169°
2026-05-01 09:07 36.69550 126.62944 26875 ft 546 kts 169°
2026-05-01 09:08 36.65877 126.64178 27403 ft 551 kts 169°
2026-05-01 09:08 36.62166 126.65426 27937 ft 556 kts 171°
2026-05-01 09:08 36.58400 126.66689 28376 ft 564 kts 171°
2026-05-01 09:08 36.54593 126.67965 28808 ft 571 kts 171°
2026-05-01 09:09 36.50744 126.69254 29338 ft 575 kts 171°
2026-05-01 09:09 36.46823 126.70567 30056 ft 575 kts 171°
2026-05-01 09:09 36.42936 126.71868 30842 ft 573 kts 171°
2026-05-01 09:09 36.39064 126.73162 31583 ft 572 kts 172°
2026-05-01 09:10 36.35215 126.74455 32242 ft 571 kts 172°
2026-05-01 09:10 36.31356 126.75758 32826 ft 572 kts 172°
2026-05-01 09:10 36.27518 126.77054 33426 ft 571 kts 172°
2026-05-01 09:10 36.23714 126.78337 34004 ft 571 kts 172°
2026-05-01 09:11 36.19889 126.79620 34726 ft 566 kts 174°
2026-05-01 09:11 36.16082 126.80502 35482 ft 550 kts 182°
2026-05-01 09:11 36.12344 126.80760 36101 ft 536 kts 191°
2026-05-01 09:11 36.08614 126.80501 36555 ft 530 kts 195°
2026-05-01 09:12 36.05017 126.79896 36988 ft 519 kts 202°
2026-05-01 09:12 36.01489 126.78998 37321 ft 518 kts 204°
2026-05-01 09:12 35.98002 126.78081 37784 ft 517 kts 204°
2026-05-01 09:12 35.94484 126.77154 37908 ft 518 kts 203°
2026-05-01 09:13 35.87456 126.75308 37894 ft 515 kts 204°
2026-05-01 09:13 35.80398 126.73452 37905 ft 519 kts 204°
2026-05-01 09:14 35.73337 126.71604 37901 ft 516 kts 204°
2026-05-01 09:14 35.66317 126.69769 37905 ft 515 kts 204°
2026-05-01 09:15 35.59249 126.67920 37908 ft 520 kts 204°
2026-05-01 09:15 35.52190 126.66082 37905 ft 516 kts 204°
2026-05-01 09:16 35.45160 126.64253 37905 ft 520 kts 204°
2026-05-01 09:17 35.34536 126.61494 37916 ft 520 kts 204°
2026-05-01 09:17 35.23989 126.58765 37920 ft 518 kts 204°
2026-05-01 09:18 35.13374 126.56023 37923 ft 518 kts 204°
2026-05-01 09:19 35.02757 126.53289 37934 ft 518 kts 204°
2026-05-01 09:20 34.92230 126.50585 37940 ft 520 kts 204°
2026-05-01 09:21 34.78100 126.46970 37915 ft 515 kts 204°
2026-05-01 09:21 34.67491 126.44259 37932 ft 518 kts 204°
2026-05-01 09:22 34.53433 126.40682 37933 ft 519 kts 204°
2026-05-01 09:23 34.42925 126.38017 37940 ft 518 kts 204°
2026-05-01 09:24 34.32321 126.35334 37943 ft 513 kts 204°
2026-05-01 09:25 34.18264 126.31783 37975 ft 520 kts 203°
2026-05-01 09:26 34.07712 126.29129 37979 ft 519 kts 203°
2026-05-01 09:26 33.97205 126.26495 37981 ft 515 kts 202°
2026-05-01 09:27 33.86631 126.23845 37962 ft 519 kts 203°
2026-05-01 09:28 33.79591 126.22087 37967 ft 515 kts 202°
2026-05-01 09:28 33.72551 126.20329 37968 ft 517 kts 202°
2026-05-01 09:29 33.62093 126.17730 37968 ft 515 kts 203°
2026-05-01 09:30 33.51550 126.15112 37979 ft 513 kts 202°
2026-05-01 09:30 33.41106 126.12528 37978 ft 512 kts 202°
2026-05-01 09:31 33.34122 126.10801 37979 ft 510 kts 202°
2026-05-01 09:32 33.23695 126.08229 37980 ft 510 kts 202°
2026-05-01 09:32 33.13209 126.05648 37981 ft 510 kts 202°
2026-05-01 09:33 33.06280 126.03947 37981 ft 510 kts 202°
2026-05-01 09:34 32.95892 126.01399 37986 ft 511 kts 202°
2026-05-01 09:34 32.85506 125.98859 37968 ft 510 kts 201°
2026-05-01 09:35 32.75095 125.96320 37981 ft 509 kts 202°
2026-05-01 09:36 32.68152 125.94631 37978 ft 507 kts 202°
2026-05-01 09:36 32.61180 125.92933 37985 ft 510 kts 201°
2026-05-01 09:37 32.54303 125.91267 37981 ft 504 kts 201°
2026-05-01 09:37 32.43931 125.88753 37991 ft 506 kts 202°
2026-05-01 09:38 32.33579 125.86249 37996 ft 507 kts 201°
2026-05-01 09:39 32.23246 125.83756 37996 ft 506 kts 201°
2026-05-01 09:39 32.16356 125.82098 38006 ft 504 kts 201°
2026-05-01 09:40 32.06073 125.79624 38008 ft 506 kts 201°
2026-05-01 09:41 31.99245 125.77744 38011 ft 496 kts 208°
2026-05-01 09:41 31.89558 125.73691 38010 ft 493 kts 209°
2026-05-01 09:42 31.83064 125.70956 37999 ft 492 kts 209°
2026-05-01 09:43 31.70180 125.65554 38013 ft 489 kts 210°
2026-05-01 09:43 31.63738 125.62846 38012 ft 492 kts 209°
2026-05-01 09:44 31.54056 125.58783 38019 ft 491 kts 210°
2026-05-01 09:45 31.47656 125.56101 38013 ft 492 kts 209°
2026-05-01 09:45 31.37953 125.52042 38014 ft 492 kts 209°
2026-05-01 09:46 31.31520 125.49358 38020 ft 490 kts 209°
2026-05-01 09:46 31.25099 125.46679 38019 ft 492 kts 209°
2026-05-01 09:47 31.18662 125.44002 38019 ft 489 kts 209°
2026-05-01 09:47 31.12258 125.41341 38022 ft 488 kts 209°
2026-05-01 09:48 31.05860 125.38683 38025 ft 489 kts 209°
2026-05-01 09:48 30.99461 125.36032 38028 ft 488 kts 209°
2026-05-01 09:49 30.93042 125.33374 38049 ft 489 kts 208°
2026-05-01 09:49 30.86600 125.30710 38036 ft 491 kts 208°
2026-05-01 09:50 30.80183 125.28061 38038 ft 491 kts 208°
2026-05-01 09:50 30.73768 125.25417 38035 ft 489 kts 208°
2026-05-01 09:51 30.67329 125.22765 38039 ft 491 kts 207°
2026-05-01 09:51 30.60938 125.20141 38037 ft 488 kts 208°
2026-05-01 09:52 30.54500 125.17496 38047 ft 490 kts 207°
2026-05-01 09:52 30.48039 125.14848 38038 ft 492 kts 207°
2026-05-01 09:53 30.41596 125.12210 38050 ft 491 kts 207°
2026-05-01 09:53 30.35190 125.09592 38047 ft 490 kts 207°
2026-05-01 09:54 30.28740 125.06958 38050 ft 491 kts 207°
2026-05-01 09:54 30.22299 125.04333 38048 ft 490 kts 207°
2026-05-01 09:55 30.15850 125.01706 38054 ft 492 kts 207°
2026-05-01 09:55 30.09437 124.99099 38054 ft 489 kts 207°
2026-05-01 09:56 30.03002 124.96484 38055 ft 493 kts 207°
2026-05-01 09:56 29.96563 124.93823 38057 ft 487 kts 208°
2026-05-01 09:57 29.90189 124.91086 38060 ft 491 kts 208°
2026-05-01 09:57 29.83833 124.88369 38052 ft 487 kts 208°
2026-05-01 09:58 29.77463 124.85650 38052 ft 488 kts 207°
2026-05-01 09:58 29.71061 124.82924 38055 ft 489 kts 207°
2026-05-01 09:59 29.64684 124.80214 38057 ft 488 kts 207°
2026-05-01 09:59 29.58331 124.77518 38059 ft 488 kts 207°
2026-05-01 10:00 29.51967 124.74821 38062 ft 487 kts 207°
2026-05-01 10:00 29.45601 124.72127 38064 ft 488 kts 207°
2026-05-01 10:01 29.39234 124.69437 38063 ft 487 kts 207°
2026-05-01 10:01 29.32837 124.66736 38063 ft 488 kts 207°
2026-05-01 10:02 29.26506 124.64068 38067 ft 488 kts 206°
2026-05-01 10:02 29.20107 124.61375 38066 ft 486 kts 207°
2026-05-01 10:03 29.13778 124.58714 38070 ft 490 kts 207°
2026-05-01 10:03 29.07400 124.56037 38072 ft 487 kts 207°
2026-05-01 10:04 29.01021 124.53363 38075 ft 486 kts 207°
2026-05-01 10:04 28.94827 124.50425 38073 ft 479 kts 216°
2026-05-01 10:05 28.89352 124.46223 38066 ft 473 kts 221°
2026-05-01 10:05 28.83970 124.41888 38067 ft 474 kts 221°
2026-05-01 10:06 28.78616 124.37585 38066 ft 473 kts 221°
2026-05-01 10:06 28.73232 124.33266 38078 ft 473 kts 220°
2026-05-01 10:07 28.67843 124.28951 38074 ft 473 kts 220°
2026-05-01 10:07 28.62449 124.24638 38073 ft 475 kts 220°
2026-05-01 10:08 28.54406 124.18219 38073 ft 473 kts 220°
2026-05-01 10:09 28.48982 124.13895 38078 ft 475 kts 220°
2026-05-01 10:09 28.43564 124.09583 38074 ft 475 kts 220°
2026-05-01 10:10 28.38189 124.05311 38075 ft 475 kts 220°
2026-05-01 10:10 28.29822 123.99226 38073 ft 482 kts 209°
2026-05-01 10:11 28.23643 123.96222 38078 ft 485 kts 208°
2026-05-01 10:11 28.17422 123.93247 38074 ft 485 kts 208°
2026-05-01 10:12 28.11184 123.90266 38074 ft 484 kts 207°
2026-05-01 10:13 28.01915 123.85840 38075 ft 483 kts 208°
2026-05-01 10:13 27.95686 123.82870 38079 ft 486 kts 208°
2026-05-01 10:14 27.86402 123.78450 38066 ft 484 kts 207°
2026-05-01 10:14 27.80157 123.75481 38064 ft 484 kts 207°
2026-05-01 10:15 27.73973 123.72545 38059 ft 483 kts 208°
2026-05-01 10:15 27.67766 123.69601 38059 ft 483 kts 208°
2026-05-01 10:16 27.61682 123.66512 38067 ft 479 kts 215°
2026-05-01 10:17 27.53558 123.60120 38062 ft 473 kts 221°
2026-05-01 10:17 27.45554 123.53625 38058 ft 473 kts 220°
2026-05-01 10:18 27.37551 123.47150 38060 ft 472 kts 221°
2026-05-01 10:19 27.32221 123.42846 38053 ft 472 kts 221°
2026-05-01 10:19 27.26856 123.38519 38058 ft 472 kts 221°
2026-05-01 10:20 27.18886 123.32101 38057 ft 474 kts 220°
2026-05-01 10:20 27.13502 123.27773 38062 ft 471 kts 220°
2026-05-01 10:21 27.05497 123.21345 38059 ft 473 kts 220°
2026-05-01 10:22 26.97518 123.14953 38056 ft 471 kts 220°
2026-05-01 10:23 26.89523 123.08556 38056 ft 472 kts 221°
2026-05-01 10:23 26.81496 123.02147 38050 ft 471 kts 221°
2026-05-01 10:24 26.70860 122.93690 38047 ft 470 kts 221°
2026-05-01 10:25 26.60201 122.85242 38042 ft 470 kts 221°
2026-05-01 10:26 26.54863 122.81017 38045 ft 471 kts 221°
2026-05-01 10:27 26.44240 122.72601 38040 ft 470 kts 221°
2026-05-01 10:28 26.36247 122.66279 38042 ft 471 kts 221°
2026-05-01 10:28 26.28252 122.59967 38033 ft 468 kts 221°
2026-05-01 10:29 26.20284 122.53687 38036 ft 470 kts 221°
2026-05-01 10:30 26.09623 122.45309 38025 ft 470 kts 221°
2026-05-01 10:31 25.98983 122.36975 38029 ft 469 kts 221°
2026-05-01 10:32 25.90964 122.30707 38034 ft 469 kts 221°
2026-05-01 10:33 25.80305 122.22390 38033 ft 469 kts 221°
2026-05-01 10:34 25.72297 122.16155 38027 ft 469 kts 221°
2026-05-01 10:34 25.66992 122.12030 38032 ft 468 kts 221°
2026-05-01 10:35 25.59546 122.05242 38032 ft 459 kts 234°
2026-05-01 10:35 25.55384 121.99935 38033 ft 456 kts 234°
2026-05-01 10:36 25.49116 121.91962 38028 ft 457 kts 234°
2026-05-01 10:37 25.44947 121.86669 38027 ft 456 kts 234°
2026-05-01 10:37 25.38696 121.78748 38026 ft 457 kts 234°
2026-05-01 10:38 25.34524 121.73470 38020 ft 457 kts 234°
2026-05-01 10:38 25.30334 121.68175 38021 ft 456 kts 234°
2026-05-01 10:39 25.26150 121.62893 38012 ft 458 kts 234°
2026-05-01 10:39 25.21974 121.57627 38020 ft 456 kts 234°
2026-05-01 10:40 25.17788 121.52355 38010 ft 457 kts 234°
2026-05-01 10:40 25.13678 121.47050 38004 ft 457 kts 235°
2026-05-01 10:41 25.09549 121.41682 38005 ft 458 kts 235°
2026-05-01 10:42 25.03364 121.33665 38005 ft 458 kts 234°
2026-05-01 10:42 24.99241 121.28331 38006 ft 459 kts 234°
2026-05-01 10:43 24.95118 121.23005 38009 ft 458 kts 234°
2026-05-01 10:43 24.90978 121.17664 38009 ft 458 kts 234°
2026-05-01 10:44 24.86833 121.12321 38001 ft 459 kts 234°
2026-05-01 10:44 24.82698 121.06998 38007 ft 458 kts 234°
2026-05-01 10:45 24.78548 121.01656 37995 ft 460 kts 234°
2026-05-01 10:45 24.74388 120.96309 37986 ft 460 kts 234°
2026-05-01 10:46 24.70225 120.90963 37998 ft 459 kts 234°
2026-05-01 10:46 24.66077 120.85644 38006 ft 460 kts 234°
2026-05-01 10:47 24.61914 120.80310 38010 ft 461 kts 234°
2026-05-01 10:47 24.57744 120.74972 37999 ft 461 kts 234°
2026-05-01 10:48 24.53471 120.69722 38001 ft 464 kts 230°
2026-05-01 10:48 24.48998 120.64671 37994 ft 463 kts 230°
2026-05-01 10:49 24.44518 120.59596 37995 ft 463 kts 230°
2026-05-01 10:49 24.40059 120.54532 37995 ft 463 kts 230°
2026-05-01 10:50 24.35585 120.49449 37987 ft 464 kts 230°
2026-05-01 10:50 24.31112 120.44368 37981 ft 464 kts 230°
2026-05-01 10:51 24.26593 120.39237 37988 ft 465 kts 230°
2026-05-01 10:51 24.22104 120.34145 37986 ft 465 kts 230°
2026-05-01 10:52 24.17625 120.29061 37986 ft 465 kts 230°
2026-05-01 10:52 24.13113 120.23952 37982 ft 466 kts 230°
2026-05-01 10:53 24.08585 120.18832 37979 ft 467 kts 230°
2026-05-01 10:53 24.04073 120.13733 37976 ft 467 kts 230°
2026-05-01 10:54 23.99568 120.08649 37977 ft 468 kts 230°
2026-05-01 10:54 23.95024 120.03529 37975 ft 467 kts 229°
2026-05-01 10:55 23.90525 119.98463 37968 ft 469 kts 230°
2026-05-01 10:55 23.85962 119.93331 37969 ft 467 kts 230°
2026-05-01 10:56 23.81436 119.88247 37972 ft 469 kts 230°
2026-05-01 10:56 23.76889 119.83144 37965 ft 469 kts 230°
2026-05-01 10:57 23.72347 119.78052 37972 ft 469 kts 230°
2026-05-01 10:57 23.67804 119.72965 37976 ft 469 kts 230°
2026-05-01 10:58 23.63249 119.67870 37979 ft 470 kts 230°
2026-05-01 10:58 23.58907 119.62559 37978 ft 466 kts 239°
2026-05-01 10:59 23.55436 119.56655 37979 ft 465 kts 241°
2026-05-01 10:59 23.51991 119.50699 37976 ft 465 kts 241°
2026-05-01 11:00 23.48545 119.44752 37981 ft 465 kts 241°
2026-05-01 11:00 23.45096 119.38810 37970 ft 465 kts 241°
2026-05-01 11:01 23.41628 119.32844 37981 ft 467 kts 241°
2026-05-01 11:01 23.38158 119.26883 37977 ft 466 kts 241°
2026-05-01 11:02 23.34687 119.20926 37974 ft 468 kts 241°
2026-05-01 11:02 23.31222 119.14987 37977 ft 469 kts 241°
2026-05-01 11:03 23.27737 119.09023 37978 ft 468 kts 241°
2026-05-01 11:03 23.24227 119.03022 37979 ft 469 kts 241°
2026-05-01 11:04 23.20728 118.97046 37977 ft 469 kts 241°
2026-05-01 11:04 23.19583 118.95091 37977 ft 469 kts 240°